Regional Weather Roundup
Issued by NWS Midland/Odessa, TX

Skip options and go directly to product.
Home | Oldest Version | Next Version | Current Version | All | Text Only | Save Text | Print | Product List | Glossary On

Skip product version selection by date and time.   
739
ASUS44 KMAF 220910
RWRMAF
MIDLAND AREA WEATHER ROUNDUP
NATIONAL WEATHER SERVICE MIDLAND TX
400 AM CDT MON SEP 22 2014

...IN SOUTHWEST TEXAS AND SOUTHEAST NEW MEXICO...

CITY           SKY/WX    TMP DP  RH WIND       PRES   REMARKS
ALPINE         CLOUDY    68  61  78 E7        30.29F
ANDREWS        CLOUDY    68  67  96 E6        30.22F
ARTESIA        NOT AVBL
BIG SPRING     CLOUDY    74  71  89 NE8       30.22R
CARLSBAD       CLOUDY    69 N/A N/A CALM      30.20F
DRYDEN           N/A     78  70  76 NE8       30.13S
FORT STOCKTON  CLOUDY    69  68  96 E7        30.18F
GUAD PASS      LGT RAIN  62  32  32 E31         N/A  VSB 1/4
HOBBS          MOCLDY    66  66 100 NE8       30.25F
MARFA          CLOUDY    64  63  94 CALM      30.28S
MIDLAND AIRPK  CLOUDY    71  70  98 NE6       30.21S
MIDLAND INTL   CLOUDY    71  68  90 NE10      30.20S
ODESSA         CLOUDY    70  67  90 E9        30.21S
PECOS          CLOUDY    69  67  94 E12       30.17S
PRESIDIO       PTSUNNY   75  65  69 NE12G17   30.11S
SEMINOLE       MOCLDY    67  65  96 CALM      30.25S
SNYDER         MOCLDY    69  67  94 NE7       30.21S
WINK           CLOUDY    71  70  96 CALM      30.18S
$$
...OTHER STATIONS IN TEXAS...

CITY           SKY/WX    TMP DP  RH WIND       PRES   REMARKS
ABILENE        MOCLDY    72  67  84 CALM      30.17S
AMARILLO       MOCLDY    60  55  83 SE7       30.31S
AUSTIN         CLEAR     69  67  93 CALM      30.08S
BROWNSVILLE    LGT RAIN  77  74  90 NE13G23   29.97R
CORPUS CHRISTI PTCLDY    77  73  87 NE7       30.01R
DALLAS FTW     MOCLDY    76  61  59 N10       30.13R
DEL RIO        PTCLDY    76  71  85 SE5       30.09R
EL PASO        CLOUDY    72  63  73 E5        30.18S
HOUSTON INT    PTCLDY    75  70  84 CALM      30.03S
LUBBOCK        MOCLDY    65  62  90 NE8       30.25F
SAN ANGELO     CLOUDY    72  67  84 CALM      30.15S
SAN ANTONIO    CLEAR     70  66  87 NW6       30.09S
WACO           PTCLDY    71  66  84 N10       30.09R
WICHITA FALLS  NOT AVBL
$$
...OTHER LOCATIONS IN NEW MEXICO...

CITY           SKY/WX    TMP DP  RH WIND       PRES   REMARKS
ALAMAGORDO     MOCLDY    72  61  68 N8        30.22S
ALBUQUERQUE    PTCLDY    66  54  65 SE12      30.29F
CANNON AFB     MOCLDY    64  61  88 E12       30.30F FOG
CLOVIS           N/A     63  61  94 E10       30.33F
HOLLOMAN AFB   MOCLDY    67  63  87 NE6       30.19S
ROSWELL        CLOUDY    68  66  93 NE3       30.25S
RUIDOSO        FOG       57  57 100 SE10      30.41F VSB 3/4
SANTA FE       CLOUDY    61  54  77 S7        30.37F
TRUTH OR CONSE CLOUDY    67  61  81 W10       30.24F
TUCUMCARI      CLOUDY    66  62  87 SE7       30.30F
$$

USA.gov is the U.S. government's official web portal to all federal, state and local government web resources and services.